Time,TemperatureF,DewpointF,PressureIn,WindDirection,WindDirectionDegrees,WindSpeedMPH,WindSpeedGustMPH,Humidity,HourlyPrecipIn,Conditions,Clouds,dailyrainin,SolarRadiationWatts/m^2,SoftwareType,DateUTC
2013-03-22 00:12:00,37.0,9.0,-100.00,NW,310,7.0,17.0,31,0.00,,,-99.99,0.000000,,2013-03-22 07:12:00,
2013-03-22 00:22:00,37.0,9.0,-100.00,NW,310,7.0,17.0,31,0.00,,,-99.99,0.000000,,2013-03-22 07:22:00,
2013-03-22 00:32:00,37.0,9.0,-100.00,NW,310,7.0,17.0,31,0.00,,,-99.99,0.000000,,2013-03-22 07:32:00,
2013-03-22 00:42:00,37.0,9.0,-100.00,NW,310,7.0,17.0,31,0.00,,,-99.99,0.000000,,2013-03-22 07:42:00,
2013-03-22 01:12:00,38.0,6.0,-100.00,NW,317,10.0,21.0,26,0.00,,,0.00,0.000000,,2013-03-22 08:12:00,
2013-03-22 01:22:00,38.0,6.0,-100.00,NW,317,10.0,21.0,26,0.00,,,0.00,0.000000,,2013-03-22 08:22:00,
2013-03-22 01:32:00,38.0,6.0,-100.00,NW,317,10.0,21.0,26,0.00,,,0.00,0.000000,,2013-03-22 08:32:00,
2013-03-22 01:42:00,38.0,6.0,-100.00,NW,317,10.0,21.0,26,0.00,,,0.00,0.000000,,2013-03-22 08:42:00,
2013-03-22 02:12:00,32.0,5.0,-100.00,East,83,1.0,12.0,31,0.00,,,0.00,0.000000,,2013-03-22 09:12:00,
2013-03-22 02:22:00,32.0,5.0,-100.00,East,83,1.0,12.0,31,0.00,,,0.00,0.000000,,2013-03-22 09:22:00,
2013-03-22 02:32:00,32.0,5.0,-100.00,East,83,1.0,12.0,31,0.00,,,0.00,0.000000,,2013-03-22 09:32:00,
2013-03-22 02:42:00,32.0,5.0,-100.00,East,83,1.0,12.0,31,0.00,,,0.00,0.000000,,2013-03-22 09:42:00,
2013-03-22 03:12:00,31.0,5.0,-100.00,WNW,300,4.0,9.0,33,0.00,,,0.00,0.000000,,2013-03-22 10:12:00,
2013-03-22 03:22:00,31.0,5.0,-100.00,WNW,300,4.0,9.0,33,0.00,,,0.00,0.000000,,2013-03-22 10:22:00,
2013-03-22 03:32:00,31.0,5.0,-100.00,WNW,300,4.0,9.0,33,0.00,,,0.00,0.000000,,2013-03-22 10:32:00,
2013-03-22 03:42:00,31.0,5.0,-100.00,WNW,300,4.0,9.0,33,0.00,,,0.00,0.000000,,2013-03-22 10:42:00,
2013-03-22 04:12:00,28.0,5.0,-100.00,WSW,255,2.0,9.0,37,0.00,,,0.00,0.000000,,2013-03-22 11:12:00,
2013-03-22 04:22:00,28.0,5.0,-100.00,WSW,255,2.0,9.0,37,0.00,,,0.00,0.000000,,2013-03-22 11:22:00,
2013-03-22 04:32:00,28.0,5.0,-100.00,WSW,255,2.0,9.0,37,0.00,,,0.00,0.000000,,2013-03-22 11:32:00,
2013-03-22 04:42:00,28.0,5.0,-100.00,WSW,255,2.0,9.0,37,0.00,,,0.00,0.000000,,2013-03-22 11:42:00,
2013-03-22 05:12:00,25.0,6.0,-100.00,SSW,206,1.0,7.0,44,0.00,,,0.00,0.000000,,2013-03-22 12:12:00,
2013-03-22 05:22:00,25.0,6.0,-100.00,SSW,206,1.0,7.0,44,0.00,,,0.00,0.000000,,2013-03-22 12:22:00,
2013-03-22 05:32:00,25.0,6.0,-100.00,SSW,206,1.0,7.0,44,0.00,,,0.00,0.000000,,2013-03-22 12:32:00,
2013-03-22 05:42:00,25.0,6.0,-100.00,SSW,206,1.0,7.0,44,0.00,,,0.00,0.000000,,2013-03-22 12:42:00,
2013-03-22 06:12:00,26.0,8.0,-100.00,WSW,244,1.0,8.0,45,0.00,,,0.00,0.000000,,2013-03-22 13:12:00,
2013-03-22 06:22:00,26.0,8.0,-100.00,WSW,244,1.0,8.0,45,0.00,,,0.00,0.000000,,2013-03-22 13:22:00,
2013-03-22 06:32:00,26.0,8.0,-100.00,WSW,244,1.0,8.0,45,0.00,,,0.00,0.000000,,2013-03-22 13:32:00,
2013-03-22 06:42:00,26.0,8.0,-100.00,WSW,244,1.0,8.0,45,0.00,,,0.00,0.000000,,2013-03-22 13:42:00,
2013-03-22 07:12:00,24.0,6.0,-100.00,SW,224,6.0,8.0,46,0.00,,,0.00,0.000000,,2013-03-22 14:12:00,
2013-03-22 07:22:00,24.0,6.0,-100.00,SW,224,6.0,8.0,46,0.00,,,0.00,0.000000,,2013-03-22 14:22:00,
2013-03-22 07:32:00,24.0,6.0,-100.00,SW,224,6.0,8.0,46,0.00,,,0.00,0.000000,,2013-03-22 14:32:00,
2013-03-22 07:42:00,24.0,6.0,-100.00,SW,224,6.0,8.0,46,0.00,,,0.00,0.000000,,2013-03-22 14:42:00,
2013-03-22 08:12:00,27.0,8.0,-100.00,WSW,250,0.0,8.0,44,0.00,,,0.00,51.000000,,2013-03-22 15:12:00,
2013-03-22 08:22:00,27.0,8.0,-100.00,WSW,250,0.0,8.0,44,0.00,,,0.00,51.000000,,2013-03-22 15:22:00,
2013-03-22 08:32:00,27.0,8.0,-100.00,WSW,250,0.0,8.0,44,0.00,,,0.00,51.000000,,2013-03-22 15:32:00,
2013-03-22 08:42:00,27.0,8.0,-100.00,WSW,250,0.0,8.0,44,0.00,,,0.00,51.000000,,2013-03-22 15:42:00,
2013-03-22 09:13:00,34.0,8.0,-100.00,NNW,338,8.0,14.0,33,0.00,,,0.00,298.000000,,2013-03-22 16:13:00,
2013-03-22 09:22:00,34.0,8.0,-100.00,NNW,338,8.0,14.0,33,0.00,,,0.00,298.000000,,2013-03-22 16:22:00,
2013-03-22 09:32:00,34.0,8.0,-100.00,NNW,338,8.0,14.0,33,0.00,,,0.00,298.000000,,2013-03-22 16:32:00,
2013-03-22 09:42:00,34.0,8.0,-100.00,NNW,338,8.0,14.0,33,0.00,,,0.00,298.000000,,2013-03-22 16:42:00,
2013-03-22 10:12:00,37.0,4.0,-100.00,NNE,26,9.0,15.0,25,0.00,,,0.00,562.000000,,2013-03-22 17:12:00,
2013-03-22 10:23:00,37.0,4.0,-100.00,NNE,26,9.0,15.0,25,0.00,,,0.00,562.000000,,2013-03-22 17:23:00,
2013-03-22 10:32:00,37.0,4.0,-100.00,NNE,26,9.0,15.0,25,0.00,,,0.00,562.000000,,2013-03-22 17:32:00,
2013-03-22 10:42:00,37.0,4.0,-100.00,NNE,26,9.0,15.0,25,0.00,,,0.00,562.000000,,2013-03-22 17:42:00,
2013-03-22 11:12:00,37.0,1.0,-100.00,NNE,23,11.0,19.0,21,0.00,,,0.00,794.000000,,2013-03-22 18:12:00,
2013-03-22 11:22:00,37.0,1.0,-100.00,NNE,23,11.0,19.0,21,0.00,,,0.00,794.000000,,2013-03-22 18:22:00,
2013-03-22 12:12:00,41.0,2.0,-100.00,NE,41,8.0,18.0,19,0.00,,,0.00,1016.000000,,2013-03-22 19:12:00,
2013-03-22 12:22:00,41.0,2.0,-100.00,NE,41,8.0,18.0,19,0.00,,,0.00,1016.000000,,2013-03-22 19:22:00,
2013-03-22 12:32:00,41.0,2.0,-100.00,NE,41,8.0,18.0,19,0.00,,,0.00,1016.000000,,2013-03-22 19:32:00,
2013-03-22 12:42:00,41.0,2.0,-100.00,NE,41,8.0,18.0,19,0.00,,,0.00,1016.000000,,2013-03-22 19:42:00,
2013-03-22 13:12:00,44.0,2.0,-100.00,North,10,6.0,14.0,17,0.00,,,0.00,1120.000000,,2013-03-22 20:12:00,
2013-03-22 13:22:00,44.0,2.0,-100.00,North,10,6.0,14.0,17,0.00,,,0.00,1120.000000,,2013-03-22 20:22:00,
2013-03-22 13:32:00,44.0,2.0,-100.00,North,10,6.0,14.0,17,0.00,,,0.00,1120.000000,,2013-03-22 20:32:00,
2013-03-22 13:42:00,44.0,2.0,-100.00,North,10,6.0,14.0,17,0.00,,,0.00,1120.000000,,2013-03-22 20:42:00,
2013-03-22 14:12:00,48.0,4.0,-100.00,NNE,20,4.0,18.0,16,0.00,,,-99.99,1135.000000,,2013-03-22 21:12:00,
2013-03-22 14:22:00,48.0,4.0,-100.00,NNE,20,4.0,18.0,16,0.00,,,-99.99,1135.000000,,2013-03-22 21:22:00,
2013-03-22 14:32:00,48.0,4.0,-100.00,NNE,20,4.0,18.0,16,0.00,,,-99.99,1135.000000,,2013-03-22 21:32:00,
2013-03-22 14:42:00,48.0,4.0,-100.00,NNE,20,4.0,18.0,16,0.00,,,-99.99,1135.000000,,2013-03-22 21:42:00,
2013-03-22 15:12:00,50.0,3.0,-100.00,ESE,119,4.0,17.0,14,0.00,,,0.00,1070.000000,,2013-03-22 22:12:00,
2013-03-22 15:23:00,50.0,3.0,-100.00,ESE,119,4.0,17.0,14,0.00,,,0.00,1070.000000,,2013-03-22 22:23:00,
2013-03-22 15:32:00,50.0,3.0,-100.00,ESE,119,4.0,17.0,14,0.00,,,0.00,1070.000000,,2013-03-22 22:32:00,
2013-03-22 15:42:00,50.0,3.0,-100.00,ESE,119,4.0,17.0,14,0.00,,,0.00,1070.000000,,2013-03-22 22:42:00,
2013-03-22 16:12:00,50.0,1.0,-100.00,North,6,5.0,14.0,13,0.00,,,0.00,928.000000,,2013-03-22 23:12:00,
2013-03-22 16:22:00,50.0,1.0,-100.00,North,6,5.0,14.0,13,0.00,,,0.00,928.000000,,2013-03-22 23:22:00,
2013-03-22 16:32:00,50.0,1.0,-100.00,North,6,5.0,14.0,13,0.00,,,0.00,928.000000,,2013-03-22 23:32:00,
2013-03-22 16:42:00,50.0,1.0,-100.00,North,6,5.0,14.0,13,0.00,,,0.00,928.000000,,2013-03-22 23:42:00,
2013-03-22 17:12:00,51.0,2.0,-100.00,NNW,336,4.0,15.0,13,0.00,,,0.00,720.000000,,2013-03-23 00:12:00,
2013-03-22 17:23:00,51.0,2.0,-100.00,NNW,336,4.0,15.0,13,0.00,,,0.00,720.000000,,2013-03-23 00:23:00,
2013-03-22 17:32:00,51.0,2.0,-100.00,NNW,336,4.0,15.0,13,0.00,,,0.00,720.000000,,2013-03-23 00:32:00,
2013-03-22 17:42:00,51.0,2.0,-100.00,NNW,336,4.0,15.0,13,0.00,,,0.00,720.000000,,2013-03-23 00:42:00,
2013-03-22 18:12:00,50.0,1.0,-100.00,NNE,32,10.0,18.0,13,0.00,,,0.00,467.000000,,2013-03-23 01:12:00,
2013-03-22 18:22:00,50.0,1.0,-100.00,NNE,32,10.0,18.0,13,0.00,,,0.00,467.000000,,2013-03-23 01:22:00,
2013-03-22 18:32:00,50.0,1.0,-100.00,NNE,32,10.0,18.0,13,0.00,,,0.00,467.000000,,2013-03-23 01:32:00,
2013-03-22 18:42:00,50.0,1.0,-100.00,NNE,32,10.0,18.0,13,0.00,,,0.00,467.000000,,2013-03-23 01:42:00,
2013-03-22 19:12:00,46.0,0.0,-100.00,NNE,33,9.0,17.0,14,0.00,,,0.00,154.000000,,2013-03-23 02:12:00,
2013-03-22 19:22:00,46.0,0.0,-100.00,NNE,33,9.0,17.0,14,0.00,,,0.00,154.000000,,2013-03-23 02:22:00,
2013-03-22 19:31:00,46.0,0.0,-100.00,NNE,33,9.0,17.0,14,0.00,,,0.00,154.000000,,2013-03-23 02:31:00,
2013-03-22 19:42:00,46.0,0.0,-100.00,NNE,33,9.0,17.0,14,0.00,,,0.00,154.000000,,2013-03-23 02:42:00,
2013-03-22 20:12:00,39.0,-1.0,-100.00,NNE,32,10.0,15.0,18,0.00,,,0.00,13.000000,,2013-03-23 03:12:00,
2013-03-22 20:22:00,39.0,-1.0,-100.00,NNE,32,10.0,15.0,18,0.00,,,0.00,13.000000,,2013-03-23 03:22:00,
2013-03-22 20:42:00,39.0,-1.0,-100.00,NNE,32,10.0,15.0,18,0.00,,,0.00,13.000000,,2013-03-23 03:42:00,
2013-03-22 21:12:00,36.0,0.0,-100.00,NNE,13,6.0,13.0,21,0.00,,,0.00,0.000000,,2013-03-23 04:12:00,
2013-03-22 21:23:00,36.0,0.0,-100.00,NNE,13,6.0,13.0,21,0.00,,,0.00,0.000000,,2013-03-23 04:23:00,
2013-03-22 22:12:00,34.0,0.0,-100.00,SSE,159,4.0,9.0,23,0.00,,,0.00,0.000000,,2013-03-23 05:12:00,
2013-03-22 22:22:00,34.0,0.0,-100.00,SSE,159,4.0,9.0,23,0.00,,,0.00,0.000000,,2013-03-23 05:22:00,
2013-03-22 22:32:00,34.0,0.0,-100.00,SSE,159,4.0,9.0,23,0.00,,,0.00,0.000000,,2013-03-23 05:32:00,
2013-03-22 22:42:00,34.0,0.0,-100.00,SSE,159,4.0,9.0,23,0.00,,,0.00,0.000000,,2013-03-23 05:42:00,
2013-03-22 23:12:00,30.0,0.0,-100.00,NNW,335,1.0,6.0,27,0.00,,,0.00,0.000000,,2013-03-23 06:12:00,
2013-03-22 23:22:00,30.0,0.0,-100.00,NNW,335,1.0,6.0,27,0.00,,,0.00,0.000000,,2013-03-23 06:22:00,
2013-03-22 23:32:00,30.0,0.0,-100.00,NNW,335,1.0,6.0,27,0.00,,,0.00,0.000000,,2013-03-23 06:32:00,
2013-03-22 23:42:00,30.0,0.0,-100.00,NNW,335,1.0,6.0,27,0.00,,,0.00,0.000000,,2013-03-23 06:42:00,